Weather History for KHNZ - October, 2012

Change the Weather History Date:

Monday, October 22, 2012

  Actual Average (KTDF) Record (KTDF)
Temperature  
Mean Temperature 55 °F -  
Max Temperature 69 °F 67 °F 87 °F (2001)
Min Temperature 41 °F 41 °F 22 °F (1974)
Degree Days  
Heating Degree Days 10    
Growing Degree Days 5 (Base 50)    
Moisture  
Dew Point 41 °F    
Average Humidity 65    
Maximum Humidity 93    
Minimum Humidity 31    
Precipitation  
Precipitation 0.00 in - - ()
Sea Level Pressure  
Sea Level Pressure 30.18 in    
Wind  
Wind Speed 1 mph (NW)    
Max Wind Speed 7 mph    
Max Gust Speed -    
Visibility 10 miles    
Events      
Averages and records for this station are not official NWS values.
T = Trace of Precipitation, MM = Missing Value Source: NWS Daily Summary

Daily Weather History Graph

Daily Weather History Graph

Search for Another Location

Airport or City:

Trip Planner

Search our weather history database for the weather conditions in past years. The results will help you decide how hot, cold, wet, or windy it might be!

Date:

Astronomy

Oct. 22, 2012 Rise Set
Actual Time 7:28 AM EDT 6:28 PM EDT
Civil Twilight 7:01 AM EDT 6:54 PM EDT
Nautical Twilight 6:31 AM EDT 7:24 PM EDT
Astronomical Twilight 6:01 AM EDT 7:54 PM EDT
Moon 2:24 PM EDT (10/22) 12:24 AM EDT (10/22)
Length of Visible Light 11h 52m
Length of Day
11h 00m
First Quarter, 56% of the Moon is Illuminated
Oct 22
First Quarter
Oct 29
Full
Nov 6
Last Quarter
Nov 13
New
Nov 20
First Quarter

Hourly Weather History & Observations

Time (EDT) Temp. Windchill Dew Point Humidity Pressure Visibility Wind Dir Wind Speed Gust Speed Precip Events Conditions
12:35 AM 42.8 °F 41.1 °F 41.0 °F 93% 30.16 in 10.0 mi SW 3.5 mph - N/A   Clear
12:55 AM 42.8 °F - 41.0 °F 93% 30.16 in 10.0 mi Calm Calm - N/A   Clear
1:35 AM 42.8 °F 41.1 °F 41.0 °F 93% 30.16 in 10.0 mi SW 3.5 mph - N/A   Clear
1:55 AM 42.8 °F 40.1 °F 41.0 °F 93% 30.16 in 10.0 mi SW 4.6 mph - N/A   Clear
2:35 AM 42.8 °F - 41.0 °F 93% 30.16 in 10.0 mi Calm Calm - N/A   Clear
2:55 AM 42.8 °F - 41.0 °F 93% 30.16 in 10.0 mi Calm Calm - N/A   Clear
3:55 AM 41.0 °F - 39.2 °F 93% 30.16 in 10.0 mi Calm Calm - N/A   Clear
4:15 AM 41.0 °F - 39.2 °F 93% 30.16 in 10.0 mi Calm Calm - N/A   Clear
4:55 AM 41.0 °F - 39.2 °F 93% 30.16 in 10.0 mi Calm Calm - N/A   Clear
5:55 AM 41.0 °F 38.0 °F 39.2 °F 93% 30.19 in 7.0 mi SSW 4.6 mph - N/A   Clear
6:15 AM 41.0 °F - 39.2 °F 93% 30.19 in 10.0 mi Calm Calm - N/A   Clear
6:35 AM 41.0 °F - 39.2 °F 93% 30.20 in 10.0 mi Calm Calm - N/A   Clear
7:15 AM 41.0 °F - 39.2 °F 93% 30.21 in 10.0 mi Calm Calm - N/A   Clear
7:35 AM 41.0 °F - 37.4 °F 87% 30.22 in 7.0 mi Calm Calm - N/A   Clear
8:15 AM 42.8 °F - 41.0 °F 93% 30.22 in 7.0 mi Calm Calm - N/A   Clear
8:35 AM 44.6 °F - 42.8 °F 93% 30.23 in 10.0 mi Calm Calm - N/A   Clear
10:35 AM 55.4 °F - 44.6 °F 67% 30.24 in 10.0 mi Calm Calm - N/A   Clear
10:55 AM 57.2 °F - 44.6 °F 63% 30.24 in 10.0 mi Calm Calm - N/A   Clear
11:15 AM 60.8 °F - 42.8 °F 52% 30.24 in 10.0 mi Calm Calm - N/A   Clear
11:35 AM 62.6 °F - 42.8 °F 48% 30.23 in 10.0 mi Calm Calm - N/A   Clear
11:55 AM 62.6 °F - 42.8 °F 48% 30.23 in 10.0 mi Calm Calm - N/A   Clear
12:35 PM 64.4 °F - 37.4 °F 37% 30.22 in 10.0 mi NW 3.5 mph - N/A   Clear
1:15 PM 68.0 °F - 37.4 °F 33% 30.20 in 10.0 mi North 6.9 mph - N/A   Clear
1:35 PM 68.0 °F - 39.2 °F 35% 30.20 in 10.0 mi North 4.6 mph - N/A   Clear
1:55 PM 68.0 °F - 39.2 °F 35% 30.19 in 10.0 mi North 3.5 mph - N/A   Clear
2:15 PM 68.0 °F - 39.2 °F 35% 30.18 in 10.0 mi Calm Calm - N/A   Clear
2:35 PM 68.0 °F - 37.4 °F 33% 30.18 in 10.0 mi NNE 4.6 mph - N/A   Clear
2:55 PM 69.8 °F - 39.2 °F 33% 30.17 in 10.0 mi North 5.8 mph - N/A   Clear
3:15 PM 69.8 °F - 37.4 °F 31% 30.17 in 10.0 mi NNW 3.5 mph - N/A   Clear
3:35 PM 69.8 °F - 37.4 °F 31% 30.16 in 10.0 mi Calm Calm - N/A   Clear
4:15 PM 69.8 °F - 37.4 °F 31% 30.16 in 10.0 mi Calm Calm - N/A   Clear
4:35 PM 69.8 °F - 37.4 °F 31% 30.16 in 10.0 mi Calm Calm - N/A   Clear
4:55 PM 69.8 °F - 39.2 °F 33% 30.16 in 10.0 mi Calm Calm - N/A   Clear
5:15 PM 69.8 °F - 37.4 °F 31% 30.15 in 10.0 mi Calm Calm - N/A   Clear
5:35 PM 68.0 °F - 42.8 °F 40% 30.15 in 10.0 mi Calm Calm - N/A   Clear
6:15 PM 62.6 °F - 42.8 °F 48% 30.16 in 10.0 mi Calm Calm - N/A   Clear
6:35 PM 60.8 °F - 46.4 °F 59% 30.16 in 10.0 mi Calm Calm - N/A   Clear
7:15 PM 59.0 °F - 46.4 °F 63% 30.17 in 10.0 mi Calm Calm - N/A   Clear
7:35 PM 55.4 °F - 46.4 °F 72% 30.18 in 10.0 mi Calm Calm - N/A   Clear
7:55 PM 55.4 °F - 44.6 °F 67% 30.18 in 10.0 mi Calm Calm - N/A   Clear
8:35 PM 55.4 °F - 44.6 °F 67% 30.18 in 10.0 mi Calm Calm - N/A   Clear
9:55 PM 53.6 °F - 44.6 °F 72% 30.18 in 10.0 mi Calm Calm - N/A   Clear
10:15 PM 51.8 °F - 44.6 °F 76% 30.19 in 10.0 mi Calm Calm - N/A   Clear
10:55 PM 48.2 °F - 44.6 °F 87% 30.19 in 10.0 mi Calm Calm - N/A   Clear
11:35 PM 50.0 °F - 44.6 °F 82% 30.18 in 10.0 mi SSW 4.6 mph - N/A   Clear